Home   Weather   Billings   Past weeks
Flag for USA

Past Weather in Billings, Montana, USA — Yesterday and Last 2 Weeks

Now
30 °F

Scattered clouds.


Feels Like: 21 °F
Forecast: 52 / 27 °F
Wind: 10 mph from Southwest

Location: Billings Logan International Airport

Current Time: Mar 22, 2019 at 9:06:37 am

Latest Report: Mar 22, 2019 at 7:53 am


Visibility: 10 mi

Pressure: 30.00 "Hg (26.64 "Hg at 946m altitude)

Humidity: 85%

Dew Point: 26 °F

Location of BillingsLocation

Past Weather in Billings — Graph

°F

Billings Temperature Yesterday

Maximum temperature yesterday: 55 °F (at 2:53 pm)
Minimum temperature yesterday: 28 °F (at 7:53 am)
Average temperature yesterday: 41 °F

High & Low Weather Summary for the Past Weeks

 TemperatureHumidityPressure
High57 °F (Mar 20, 4:53 pm)96% (Mar 8, 11:53 pm)30.44 "Hg (Mar 8, 11:53 pm)
Low5 °F (Mar 7, 6:53 am)28% (Mar 20, 4:53 pm)29.62 "Hg (Mar 12, 4:53 pm)
Average31 °F66%30.14 "Hg
* Reported Mar 7 6:53 am — Mar 22 7:53 am, Billings. Weather by CustomWeather, © 2019

Note: Actual official high and low records may vary slightly from our data, if they occured in-between our weather recording intervals... More about our weather records

Advertising

Billings Weather History for the Previous 24 Hours

Scroll right to see more
 ConditionsComfort  
Time TempWeatherWind HumidityBarometerVisibility
7:53 am
Fri, Mar 22
30 °FScattered clouds.10 mph85%30.00 "Hg10 mi
6:53 am29 °FPassing clouds.6 mph93%29.98 "Hg10 mi
5:53 am31 °FPassing clouds.6 mph89%29.98 "Hg10 mi
4:53 am31 °FPassing clouds.3 mph89%29.98 "Hg10 mi
3:53 am35 °FPassing clouds.No wind70%29.99 "Hg10 mi
2:53 am33 °FPassing clouds.No wind82%30.02 "Hg10 mi
1:53 am35 °FPassing clouds.No wind78%30.03 "Hg10 mi
12:53 am36 °FPassing clouds.3 mph70%30.04 "Hg10 mi
11:53 pm
Thu, Mar 21
40 °FPassing clouds.6 mph65%30.05 "Hg10 mi
10:53 pm40 °FPassing clouds.6 mph70%30.06 "Hg10 mi
9:53 pm41 °FClear.6 mph70%30.06 "Hg10 mi
8:53 pm44 °FClear.9 mph63%30.07 "Hg10 mi
7:53 pm45 °FPassing clouds.9 mph60%30.07 "Hg10 mi
6:53 pm50 °FScattered clouds.12 mph50%30.06 "Hg10 mi
4:53 pm54 °FPassing clouds.12 mph40%30.07 "Hg10 mi
3:53 pm54 °FPassing clouds.10 mph37%30.07 "Hg10 mi
2:53 pm55 °FPassing clouds.3 mph34%30.08 "Hg10 mi
1:53 pm53 °FPassing clouds.5 mph34%30.10 "Hg10 mi
12:53 pm50 °FPassing clouds.3 mph41%30.12 "Hg10 mi
11:53 am45 °FPassing clouds.6 mph48%30.15 "Hg10 mi
10:53 am40 °FPassing clouds.12 mph58%30.17 "Hg10 mi
9:53 am36 °FPassing clouds.15 mph67%30.18 "Hg10 mi
Weather by CustomWeather, © 2019

See weather overview